Preview of NWS' New Version of Forecast
This preview is not operational and should not be used for support decisions.

Regional Weather Roundup (RWR)

Issued by National Weather Service (NWS)

                            
000
ASUS45 KBOI 180610
RWRID 

IDAHO REGIONAL WEATHER ROUNDUP
NATIONAL WEATHER SERVICE BOISE ID
1200 AM MDT THU APR 18 2019

NOTE: "FAIR" INDICATES FEW OR NO CLOUDS BELOW 12000 FEET
WITH NO SIGNIFICANT WEATHER AND/OR OBSTRUCTIONS TO VISIBILITY

IDZ012-014-180700-
SOUTHWEST IDAHO

  
CITY           SKY/WX    TMP DP  RH WIND       PRES   REMARKS
BOISE          CLEAR     49  38  65 MISG      30.30R                  
CALDWELL       CLEAR     50  39  66 CALM      30.30R                  
MOUNTAIN HOME  CLEAR     43  38  84 N6        30.30R                  
$$

IDZ016-017-180700-
SOUTHCENTRAL IDAHO

  
CITY           SKY/WX    TMP DP  RH WIND       PRES   REMARKS
BURLEY         CLEAR     47  35  63 SW14      30.27S                  
JEROME         CLEAR     47  37  68 SW15      30.28R                  
TWIN FALLS     CLEAR     45  37  73 S13       30.30S                  
$$

IDZ019>023-180700-
SOUTHEAST IDAHO

  
CITY           SKY/WX    TMP DP  RH WIND       PRES   REMARKS
IDAHO FALLS    CLEAR     44  36  73 S13       30.23R                  
POCATELLO      CLEAR     47  35  63 SW18      30.26S                  
REXBURG        CLEAR     43  35  73 S8        30.22R                  
$$

IDZ006-010-011-018-031-032-180700-
CENTRAL IDAHO MOUNTAINS

  
CITY           SKY/WX    TMP DP  RH WIND       PRES   REMARKS
MCCALL         CLEAR     33  27  78 N3        30.31R                  
STANLEY          N/A     29  22  75 CALM      30.34R                  
SALMON         CLEAR     42  30  62 S5        30.30R                  
CHALLIS        CLEAR     42  25  50 W5        30.27S                  
$$

IDZ002-004-006-007-026-180700-
NORTHERN IDAHO

  
CITY           SKY/WX    TMP DP  RH WIND       PRES   REMARKS
LEWISTON       CLEAR     49  39  68 S6        30.28R                  
LOWELL         NOT AVBL                                               
COEUR D'ALENE  CLEAR     48  37  65 S7        30.26R                  
MULLAN PASS    MOCLDY    35  31  85 VRB3      30.26R                  
$$